FDX48 KDEN-EBLG

Flight info

Callsign FDX48
Flight time N/A
Altitude 31000
Route CHUWY1 CHUWY Q88 VIVID DCT DLH DCT OVORA DCT GRAMP DCT ULDON/N0490F330 DCT ROBBE DCT LOMSI/M083F340 NATU SOVED/N0479F350 DCT APSOV DCT DONIB DCT MAGEE DCT MAKUX DCT SOSIM L15 BIG Q70 VABIK/N0446F230 Q70 KOK KOK1X
Aircraft B77L/H-SDE1E2E3FGHIJ2J3J4J5M1RWXY/LB1D1

Departure

Time N/A
Airport Denver International Airport (KDEN)

Arrival

Time 2026-04-22 06:54
Airport Liège Airport (EBLG)
Time Latitude Longitude Altitude Speed Heading
2026-04-22 05:32 55.29540 -6.72026 29356 ft 486 kts 129°
2026-04-22 05:32 55.25397 -6.62678 29290 ft 483 kts 129°
2026-04-22 05:33 55.21243 -6.53514 29244 ft 482 kts 134°
2026-04-22 05:33 55.16427 -6.45398 29185 ft 480 kts 140°
2026-04-22 05:34 55.11475 -6.37523 29116 ft 481 kts 140°
2026-04-22 05:34 55.06569 -6.29677 29047 ft 480 kts 140°
2026-04-22 05:35 55.01658 -6.21779 28988 ft 479 kts 140°
2026-04-22 05:35 54.96765 -6.13918 28945 ft 478 kts 140°
2026-04-22 05:36 54.91871 -6.06084 28888 ft 477 kts 140°
2026-04-22 05:36 54.87061 -5.98413 28818 ft 476 kts 140°
2026-04-22 05:37 54.82183 -5.90663 28757 ft 474 kts 140°
2026-04-22 05:37 54.77315 -5.82955 28708 ft 473 kts 140°
2026-04-22 05:38 54.72442 -5.75266 28628 ft 473 kts 140°
2026-04-22 05:38 54.70003 -5.71427 28381 ft 475 kts 140°
2026-04-22 05:38 54.67563 -5.67593 28102 ft 471 kts 140°
2026-04-22 05:39 54.65139 -5.63788 27826 ft 468 kts 140°
2026-04-22 05:39 54.62734 -5.60021 27560 ft 465 kts 140°
2026-04-22 05:39 54.60351 -5.56294 27465 ft 461 kts 140°
2026-04-22 05:39 54.58007 -5.52635 27440 ft 461 kts 140°
2026-04-22 05:40 54.55617 -5.48912 27445 ft 463 kts 140°
2026-04-22 05:40 54.53215 -5.45177 27433 ft 464 kts 140°
2026-04-22 05:40 54.50817 -5.41453 27425 ft 465 kts 140°
2026-04-22 05:40 54.48415 -5.37729 27426 ft 465 kts 140°
2026-04-22 05:41 54.46004 -5.33996 27422 ft 466 kts 140°
2026-04-22 05:41 54.43595 -5.30272 27422 ft 466 kts 140°
2026-04-22 05:41 54.41179 -5.26544 27417 ft 466 kts 140°
2026-04-22 05:41 54.38765 -5.22826 27420 ft 467 kts 140°
2026-04-22 05:42 54.36349 -5.19111 27416 ft 466 kts 140°
2026-04-22 05:42 54.33935 -5.15403 27419 ft 466 kts 140°
2026-04-22 05:42 54.31521 -5.11703 27412 ft 466 kts 140°
2026-04-22 05:42 54.29134 -5.08049 27411 ft 465 kts 140°
2026-04-22 05:43 54.26719 -5.04360 27411 ft 465 kts 140°
2026-04-22 05:43 54.24307 -5.00681 27412 ft 464 kts 140°
2026-04-22 05:43 54.21948 -4.97088 27404 ft 464 kts 140°
2026-04-22 05:43 54.19535 -4.93419 27404 ft 464 kts 140°
2026-04-22 05:44 54.17124 -4.89759 27404 ft 464 kts 140°
2026-04-22 05:44 54.14712 -4.86104 27377 ft 463 kts 140°
2026-04-22 05:44 54.12300 -4.82453 27385 ft 463 kts 140°
2026-04-22 05:44 54.09888 -4.78809 27390 ft 462 kts 140°
2026-04-22 05:45 54.07482 -4.75180 27397 ft 462 kts 140°
2026-04-22 05:45 54.05072 -4.71552 27395 ft 464 kts 140°
2026-04-22 05:45 54.02645 -4.67905 27412 ft 466 kts 140°
2026-04-22 05:45 54.00209 -4.64249 27405 ft 466 kts 140°
2026-04-22 05:46 53.97774 -4.60599 27400 ft 466 kts 140°
2026-04-22 05:46 53.95361 -4.56989 27399 ft 466 kts 140°
2026-04-22 05:46 53.92925 -4.53350 27398 ft 466 kts 140°
2026-04-22 05:46 53.90489 -4.49716 27374 ft 466 kts 140°
2026-04-22 05:47 53.88057 -4.46096 27389 ft 465 kts 140°
2026-04-22 05:47 53.85627 -4.42483 27385 ft 464 kts 140°
2026-04-22 05:47 53.83198 -4.38877 27392 ft 464 kts 140°
2026-04-22 05:47 53.80765 -4.35272 27397 ft 464 kts 140°
2026-04-22 05:48 53.78341 -4.31685 27392 ft 463 kts 140°
2026-04-22 05:48 53.75944 -4.28146 27385 ft 463 kts 140°
2026-04-22 05:48 53.73518 -4.24567 27384 ft 463 kts 141°
2026-04-22 05:48 53.71089 -4.20988 27380 ft 463 kts 141°
2026-04-22 05:49 53.68659 -4.17413 27389 ft 464 kts 141°
2026-04-22 05:49 53.66220 -4.13838 27384 ft 464 kts 140°
2026-04-22 05:49 53.63845 -4.10141 27380 ft 465 kts 135°
2026-04-22 05:49 53.61735 -4.06000 27380 ft 466 kts 127°
2026-04-22 05:50 53.59982 -4.01390 27380 ft 467 kts 118°
2026-04-22 05:50 53.58559 -3.96560 27395 ft 466 kts 115°
2026-04-22 05:50 53.57073 -3.91705 27393 ft 466 kts 121°
2026-04-22 05:50 53.55058 -3.87514 27389 ft 461 kts 142°
2026-04-22 05:51 53.52374 -3.84635 27409 ft 457 kts 155°
2026-04-22 05:51 53.49639 -3.82051 27376 ft 458 kts 145°
2026-04-22 05:51 53.47429 -3.78187 27395 ft 462 kts 123°
2026-04-22 05:51 53.46020 -3.73327 27404 ft 462 kts 112°
2026-04-22 05:52 53.44641 -3.68435 27395 ft 465 kts 120°
2026-04-22 05:52 53.42869 -3.63886 27406 ft 467 kts 127°
2026-04-22 05:52 53.40864 -3.59569 27407 ft 469 kts 132°
2026-04-22 05:52 53.38678 -3.55566 27354 ft 470 kts 134°
2026-04-22 05:53 53.36461 -3.51518 27065 ft 470 kts 133°
2026-04-22 05:53 53.34305 -3.47458 26961 ft 463 kts 132°
2026-04-22 05:53 53.32194 -3.43423 26923 ft 459 kts 132°
2026-04-22 05:53 53.30082 -3.39400 26898 ft 461 kts 132°
2026-04-22 05:54 53.27962 -3.35375 26884 ft 462 kts 132°
2026-04-22 05:54 53.25834 -3.31345 26850 ft 463 kts 132°
2026-04-22 05:54 53.23701 -3.27313 26830 ft 464 kts 132°
2026-04-22 05:54 53.21561 -3.23273 26810 ft 464 kts 132°
2026-04-22 05:55 53.19419 -3.19239 26755 ft 464 kts 132°
2026-04-22 05:55 53.17274 -3.15207 26733 ft 464 kts 132°
2026-04-22 05:55 53.15163 -3.11244 26707 ft 463 kts 132°
2026-04-22 05:55 53.12999 -3.07188 26680 ft 462 kts 132°
2026-04-22 05:56 53.10893 -3.03247 26645 ft 462 kts 132°
2026-04-22 05:56 53.08796 -2.99326 26631 ft 461 kts 132°
2026-04-22 05:56 53.06663 -2.95339 26605 ft 462 kts 132°
2026-04-22 05:56 53.04527 -2.91357 26574 ft 462 kts 132°
2026-04-22 05:57 53.02387 -2.87378 26545 ft 462 kts 132°
2026-04-22 05:57 53.00244 -2.83399 26522 ft 462 kts 132°
2026-04-22 05:57 52.98101 -2.79424 26474 ft 462 kts 132°
2026-04-22 05:57 52.95955 -2.75449 26439 ft 462 kts 132°
2026-04-22 05:58 52.93811 -2.71481 26414 ft 461 kts 132°
2026-04-22 05:58 52.91666 -2.67519 26399 ft 461 kts 132°
2026-04-22 05:58 52.89523 -2.63566 26353 ft 461 kts 132°
2026-04-22 05:58 52.87383 -2.59624 26329 ft 460 kts 132°
2026-04-22 05:59 52.85242 -2.55686 26303 ft 460 kts 132°
2026-04-22 05:59 52.83100 -2.51751 26291 ft 460 kts 132°
2026-04-22 05:59 52.80956 -2.47823 26250 ft 461 kts 132°
2026-04-22 05:59 52.78809 -2.43898 26233 ft 461 kts 132°
2026-04-22 06:00 52.76651 -2.39966 26192 ft 462 kts 132°
2026-04-22 06:00 52.74493 -2.36037 26192 ft 462 kts 132°
2026-04-22 06:00 52.72327 -2.32102 26494 ft 464 kts 132°
2026-04-22 06:00 52.70140 -2.28131 27095 ft 469 kts 133°
2026-04-22 06:01 52.67937 -2.24137 27752 ft 473 kts 133°
2026-04-22 06:01 52.65711 -2.20108 28370 ft 477 kts 133°
2026-04-22 06:01 52.63454 -2.16029 28976 ft 482 kts 133°
2026-04-22 06:01 52.61183 -2.11932 29508 ft 487 kts 133°
2026-04-22 06:02 52.58887 -2.07796 30073 ft 492 kts 133°
2026-04-22 06:02 52.56590 -2.03666 30603 ft 496 kts 133°
2026-04-22 06:02 52.54289 -1.99535 31064 ft 500 kts 133°
2026-04-22 06:02 52.51917 -1.95281 31468 ft 505 kts 133°
2026-04-22 06:03 52.49532 -1.91014 31913 ft 509 kts 133°
2026-04-22 06:03 52.47131 -1.86725 32405 ft 510 kts 133°
2026-04-22 06:03 52.44727 -1.82438 32858 ft 512 kts 133°
2026-04-22 06:03 52.42305 -1.78126 33250 ft 515 kts 133°
2026-04-22 06:04 52.39865 -1.73788 33603 ft 518 kts 133°
2026-04-22 06:04 52.37412 -1.69435 33936 ft 521 kts 133°
2026-04-22 06:04 52.34973 -1.65122 34352 ft 521 kts 134°
2026-04-22 06:04 52.32488 -1.60818 34836 ft 518 kts 134°
2026-04-22 06:05 52.30003 -1.56580 35353 ft 515 kts 134°
2026-04-22 06:05 52.27503 -1.52343 35394 ft 520 kts 134°
2026-04-22 06:05 52.22488 -1.43849 35401 ft 516 kts 134°
2026-04-22 06:06 52.17531 -1.35442 35399 ft 513 kts 134°
2026-04-22 06:06 52.12614 -1.27121 35402 ft 512 kts 134°
2026-04-22 06:07 52.07669 -1.18782 35387 ft 512 kts 134°
2026-04-22 06:07 52.02706 -1.10444 35340 ft 513 kts 135°
2026-04-22 06:08 51.98515 -1.03600 35349 ft 514 kts 135°
2026-04-22 06:08 51.93547 -0.95349 35358 ft 516 kts 134°
2026-04-22 06:09 51.88910 -0.86491 35341 ft 516 kts 122°
2026-04-22 06:09 51.85696 -0.76223 35344 ft 514 kts 108°
2026-04-22 06:10 51.83433 -0.65240 35349 ft 514 kts 106°
2026-04-22 06:10 51.81220 -0.54240 35345 ft 514 kts 106°
2026-04-22 06:11 51.78966 -0.43319 35340 ft 515 kts 107°
2026-04-22 06:11 51.76650 -0.32335 35432 ft 515 kts 107°
2026-04-22 06:12 51.74316 -0.21366 35431 ft 516 kts 107°
2026-04-22 06:12 51.71991 -0.10484 35421 ft 516 kts 108°
2026-04-22 06:13 51.69660 0.00379 35354 ft 516 kts 107°
2026-04-22 06:13 51.67306 0.11292 35340 ft 515 kts 107°
2026-04-22 06:14 51.64947 0.22171 35339 ft 514 kts 107°
2026-04-22 06:14 51.62579 0.33033 35336 ft 513 kts 107°
2026-04-22 06:15 51.60210 0.43845 35317 ft 512 kts 107°
2026-04-22 06:15 51.57849 0.54566 35330 ft 512 kts 107°
2026-04-22 06:16 51.55460 0.65358 35314 ft 511 kts 107°
2026-04-22 06:16 51.53067 0.76104 35294 ft 507 kts 107°
2026-04-22 06:17 51.51884 0.81395 35015 ft 498 kts 107°
2026-04-22 06:17 51.50715 0.86607 34368 ft 493 kts 107°
2026-04-22 06:17 51.49562 0.91734 33223 ft 486 kts 107°
2026-04-22 06:17 51.48417 0.96822 32009 ft 483 kts 106°
2026-04-22 06:18 51.47293 1.01811 30735 ft 482 kts 106°
2026-04-22 06:18 51.46150 1.06871 29400 ft 480 kts 106°
2026-04-22 06:18 51.45018 1.11864 28340 ft 470 kts 107°
2026-04-22 06:18 51.43918 1.16694 27407 ft 453 kts 107°
2026-04-22 06:19 51.42864 1.21309 26285 ft 442 kts 107°
2026-04-22 06:19 51.41825 1.25858 25335 ft 427 kts 108°
2026-04-22 06:19 51.40813 1.30286 24336 ft 423 kts 108°
2026-04-22 06:19 51.39804 1.34697 23689 ft 414 kts 108°
2026-04-22 06:20 51.38819 1.38990 23466 ft 410 kts 108°
2026-04-22 06:20 51.37825 1.43320 23325 ft 418 kts 108°
2026-04-22 06:20 51.36821 1.47680 23324 ft 414 kts 108°
2026-04-22 06:20 51.35838 1.51936 23315 ft 411 kts 109°
2026-04-22 06:21 51.34844 1.56234 23310 ft 412 kts 108°
2026-04-22 06:21 51.33846 1.60536 23317 ft 413 kts 108°
2026-04-22 06:21 51.32843 1.64851 23321 ft 414 kts 109°
2026-04-22 06:21 51.31835 1.69176 23303 ft 416 kts 108°
2026-04-22 06:22 51.30818 1.73533 23313 ft 419 kts 108°
2026-04-22 06:22 51.29794 1.77916 23317 ft 422 kts 108°
2026-04-22 06:22 51.28763 1.82322 23318 ft 424 kts 108°
2026-04-22 06:22 51.27725 1.86746 23319 ft 425 kts 108°
2026-04-22 06:23 51.26684 1.91169 23329 ft 426 kts 109°
2026-04-22 06:23 51.25661 1.95536 23319 ft 414 kts 107°
2026-04-22 06:23 51.24885 1.99845 23307 ft 404 kts 100°
2026-04-22 06:23 51.24381 2.04220 23331 ft 414 kts 96°
2026-04-22 06:24 51.22837 2.13308 23304 ft 431 kts 110°
2026-04-22 06:24 51.21694 2.17723 22888 ft 428 kts 111°
2026-04-22 06:24 51.20538 2.22087 22268 ft 424 kts 111°
2026-04-22 06:25 51.19406 2.26391 21901 ft 414 kts 110°
2026-04-22 06:25 51.18317 2.30591 21664 ft 406 kts 111°
2026-04-22 06:25 51.17247 2.34779 21451 ft 411 kts 110°
2026-04-22 06:25 51.16166 2.39038 21235 ft 416 kts 110°
2026-04-22 06:26 51.15084 2.43305 20996 ft 414 kts 110°
2026-04-22 06:26 51.14020 2.47494 20772 ft 410 kts 110°
2026-04-22 06:26 51.12948 2.51704 20535 ft 407 kts 110°
2026-04-22 06:26 51.11886 2.55874 20308 ft 404 kts 110°
2026-04-22 06:27 51.10831 2.60001 20094 ft 401 kts 110°
2026-04-22 06:27 51.09779 2.64107 19876 ft 399 kts 110°
2026-04-22 06:27 51.08874 2.68202 19661 ft 396 kts 104°
2026-04-22 06:27 51.08185 2.72482 19451 ft 394 kts 102°
2026-04-22 06:28 51.07592 2.76725 19236 ft 393 kts 101°
2026-04-22 06:28 51.07018 2.80910 19020 ft 392 kts 101°
2026-04-22 06:28 51.06422 2.85136 18850 ft 391 kts 101°
2026-04-22 06:28 51.05809 2.89351 18632 ft 390 kts 102°
2026-04-22 06:29 51.05184 2.93539 18392 ft 388 kts 102°
2026-04-22 06:29 51.04550 2.97711 18154 ft 387 kts 102°
2026-04-22 06:29 51.03927 3.01775 17938 ft 385 kts 102°
2026-04-22 06:29 51.03292 3.05894 17723 ft 383 kts 102°
2026-04-22 06:30 51.02657 3.10000 17509 ft 381 kts 102°
2026-04-22 06:30 51.02024 3.14080 17291 ft 380 kts 102°
2026-04-22 06:30 51.01392 3.18144 17094 ft 378 kts 102°
2026-04-22 06:30 51.00761 3.22200 16885 ft 377 kts 103°
2026-04-22 06:31 51.00131 3.26229 16674 ft 376 kts 103°
2026-04-22 06:31 50.99508 3.30210 16479 ft 374 kts 103°
2026-04-22 06:31 50.98881 3.34208 16264 ft 373 kts 102°
2026-04-22 06:31 50.98254 3.38201 16070 ft 372 kts 102°
2026-04-22 06:32 50.97626 3.42188 15860 ft 371 kts 103°
2026-04-22 06:32 50.96999 3.46156 15659 ft 370 kts 103°
2026-04-22 06:32 50.96373 3.50107 15456 ft 368 kts 102°
2026-04-22 06:32 50.95771 3.54055 15251 ft 367 kts 102°
2026-04-22 06:33 50.95186 3.57991 15055 ft 366 kts 102°
2026-04-22 06:33 50.94606 3.61911 14860 ft 365 kts 102°
2026-04-22 06:33 50.94027 3.65823 14668 ft 364 kts 102°
2026-04-22 06:33 50.93445 3.69740 14454 ft 362 kts 102°
2026-04-22 06:34 50.92864 3.73631 14263 ft 361 kts 102°
2026-04-22 06:34 50.92291 3.77458 14066 ft 360 kts 102°
2026-04-22 06:34 50.91712 3.81308 13847 ft 359 kts 102°
2026-04-22 06:34 50.91134 3.85135 13465 ft 355 kts 102°
2026-04-22 06:35 50.90560 3.88925 12947 ft 352 kts 102°
2026-04-22 06:35 50.89992 3.92669 12370 ft 348 kts 102°
2026-04-22 06:35 50.89423 3.96407 11741 ft 347 kts 102°
2026-04-22 06:35 50.88861 4.00099 11260 ft 349 kts 102°
2026-04-22 06:36 50.88297 4.03787 11008 ft 345 kts 102°
2026-04-22 06:36 50.87735 4.07460 10768 ft 342 kts 102°
2026-04-22 06:36 50.87174 4.11123 10465 ft 341 kts 102°
2026-04-22 06:36 50.86620 4.14719 10284 ft 337 kts 103°
2026-04-22 06:37 50.86074 4.18256 10327 ft 322 kts 103°
2026-04-22 06:37 50.85556 4.21597 10350 ft 303 kts 103°
2026-04-22 06:37 50.85067 4.24745 10354 ft 286 kts 102°
2026-04-22 06:37 50.84606 4.27716 10357 ft 269 kts 102°
2026-04-22 06:38 50.84170 4.30518 10035 ft 255 kts 102°
2026-04-22 06:38 50.83747 4.33235 9190 ft 253 kts 102°
2026-04-22 06:38 50.83328 4.35932 8342 ft 251 kts 102°
2026-04-22 06:38 50.82911 4.38605 7572 ft 250 kts 102°
2026-04-22 06:39 50.82491 4.41298 7131 ft 252 kts 103°
2026-04-22 06:39 50.82072 4.43968 6969 ft 250 kts 103°
2026-04-22 06:39 50.81644 4.46701 7006 ft 264 kts 103°
2026-04-22 06:39 50.81195 4.49566 7009 ft 271 kts 103°
2026-04-22 06:40 50.80740 4.52452 6991 ft 268 kts 103°
2026-04-22 06:40 50.80294 4.55280 6953 ft 263 kts 103°
2026-04-22 06:40 50.79859 4.58022 6914 ft 258 kts 103°
2026-04-22 06:40 50.79427 4.60752 6873 ft 253 kts 103°
2026-04-22 06:41 50.79011 4.63377 6658 ft 240 kts 103°
2026-04-22 06:41 50.78609 4.65905 6497 ft 235 kts 103°
2026-04-22 06:41 50.78218 4.68358 6428 ft 224 kts 103°
2026-04-22 06:41 50.77846 4.70690 6336 ft 218 kts 103°
2026-04-22 06:42 50.77474 4.73031 6338 ft 220 kts 103°
2026-04-22 06:42 50.77101 4.75367 6316 ft 218 kts 103°
2026-04-22 06:42 50.76732 4.77674 6316 ft 216 kts 103°
2026-04-22 06:42 50.76366 4.79959 6312 ft 213 kts 103°
2026-04-22 06:43 50.76005 4.82211 6320 ft 212 kts 102°
2026-04-22 06:43 50.75641 4.84476 6189 ft 214 kts 103°
2026-04-22 06:43 50.75275 4.86755 6095 ft 214 kts 103°
2026-04-22 06:43 50.74909 4.89035 6036 ft 214 kts 103°
2026-04-22 06:44 50.74547 4.91285 6002 ft 214 kts 103°
2026-04-22 06:44 50.74179 4.93563 5999 ft 214 kts 103°
2026-04-22 06:44 50.73809 4.95837 6006 ft 214 kts 103°
2026-04-22 06:44 50.73439 4.98115 6002 ft 214 kts 103°
2026-04-22 06:45 50.73077 5.00358 5994 ft 214 kts 103°
2026-04-22 06:45 50.72708 5.02631 5998 ft 213 kts 103°
2026-04-22 06:45 50.72340 5.04899 6000 ft 214 kts 103°
2026-04-22 06:45 50.71969 5.07174 6000 ft 214 kts 103°
2026-04-22 06:46 50.71598 5.09449 6001 ft 214 kts 103°
2026-04-22 06:46 50.71228 5.11724 6005 ft 214 kts 103°
2026-04-22 06:46 50.70856 5.13998 6007 ft 214 kts 103°
2026-04-22 06:46 50.70487 5.16249 6003 ft 214 kts 103°
2026-04-22 06:47 50.70113 5.18529 6000 ft 215 kts 103°
2026-04-22 06:47 50.69738 5.20813 6004 ft 215 kts 103°
2026-04-22 06:47 50.69362 5.23102 5994 ft 216 kts 103°
2026-04-22 06:47 50.69036 5.25388 5984 ft 211 kts 91°
2026-04-22 06:48 50.69329 5.27623 6022 ft 212 kts 72°
2026-04-22 06:48 50.69794 5.29880 5970 ft 220 kts 74°
2026-04-22 06:48 50.70247 5.32221 5689 ft 225 kts 75°
2026-04-22 06:48 50.70699 5.34588 5315 ft 227 kts 74°
2026-04-22 06:49 50.71153 5.36992 4827 ft 230 kts 75°
2026-04-22 06:49 50.71604 5.39395 4139 ft 226 kts 75°
2026-04-22 06:49 50.72037 5.41718 3589 ft 217 kts 75°
2026-04-22 06:49 50.72445 5.43922 3219 ft 201 kts 75°
2026-04-22 06:50 50.72828 5.46002 3007 ft 192 kts 76°
2026-04-22 06:50 50.73194 5.47982 2832 ft 182 kts 76°
2026-04-22 06:50 50.73424 5.49229 2834 ft 168 kts 76°
2026-04-22 06:50 50.73738 5.50943 2859 ft 163 kts 76°
2026-04-22 06:51 50.74021 5.52699 2825 ft 162 kts 88°
2026-04-22 06:51 50.73775 5.54384 2835 ft 158 kts 116°
2026-04-22 06:51 50.73048 5.55696 2723 ft 161 kts 143°
2026-04-22 06:51 50.71974 5.56230 2608 ft 167 kts 174°
2026-04-22 06:52 50.70895 5.55539 2547 ft 181 kts 217°
2026-04-22 06:52 50.69959 5.54137 2385 ft 189 kts 218°
2026-04-22 06:52 50.69028 5.52725 1950 ft 184 kts 219°
2026-04-22 06:52 50.68082 5.51369 1475 ft 182 kts 221°
2026-04-22 06:53 50.67274 5.49939 1210 ft 165 kts 227°
2026-04-22 06:53 50.66500 5.48727 995 ft 150 kts 220°
2026-04-22 06:53 50.65752 5.47607 868 ft 148 kts 225°
2026-04-22 06:53 50.65036 5.46449 696 ft 146 kts 221°
2026-04-22 06:54 50.64326 5.45353 629 ft 132 kts 225°
2026-04-22 06:54 50.63791 5.44491 639 ft 87 kts 225°
2026-04-22 06:54 50.63519 5.44059 636 ft 16 kts 225°
2026-04-22 06:54 50.63430 5.43953 639 ft 16 kts 204°
2026-04-22 06:55 50.63328 5.43875 638 ft 16 kts 202°
2026-04-22 06:55 50.63224 5.43837 639 ft 14 kts 169°
2026-04-22 06:55 50.63223 5.43958 642 ft 14 kts 48°
2026-04-22 06:55 50.63279 5.44047 641 ft 12 kts 45°
2026-04-22 06:56 50.63341 5.44144 640 ft 13 kts 45°
2026-04-22 06:56 50.63410 5.44254 638 ft 15 kts 45°
2026-04-22 06:56 50.63485 5.44374 637 ft 16 kts 45°
2026-04-22 06:56 50.63567 5.44501 640 ft 17 kts 45°
2026-04-22 06:57 50.63651 5.44637 636 ft 17 kts 46°
2026-04-22 06:57 50.63735 5.44770 631 ft 17 kts 45°
2026-04-22 06:57 50.63813 5.44894 631 ft 15 kts 45°
2026-04-22 06:57 50.63881 5.45001 631 ft 13 kts 45°
2026-04-22 06:58 50.63944 5.45100 626 ft 12 kts 45°
2026-04-22 06:58 50.64009 5.45203 629 ft 14 kts 45°
2026-04-22 06:58 50.64083 5.45319 627 ft 16 kts 45°
2026-04-22 06:58 50.64163 5.45449 627 ft 17 kts 47°
2026-04-22 06:59 50.64185 5.45532 625 ft 5 kts 110°
2026-04-22 06:59 50.64156 5.45581 624 ft 7 kts 139°
2026-04-22 06:59 50.64137 5.45607 624 ft 2 kts 140°
2026-04-22 06:59 50.64136 5.45609 627 ft 0 kts 140°